| time (UTC) | temp F | wind direction | speed knots | gust knots | rain 1hr in | rain 24hr in | rain mn in | humidity % | barometer mb |
| 20260831054547 | 47 | 129 | 0.0 | 0.0 | 0.00 | 0.00 | 0.00 | 72 | 1008.3 |
| 20260831053101 | 48 | 129 | 0.0 | 0.0 | 0.00 | 0.00 | 0.00 | 72 | 1008.4 |
| 20260831051602 | 48 | 129 | 0.0 | 0.0 | 0.00 | 0.00 | 0.00 | 72 | 1008.5 |
| 20260831050046 | 48 | 225 | 0.0 | 0.9 | 0.00 | 0.00 | 0.00 | 72 | 1008.7 |
| 20260831044600 | 50 | 224 | 0.0 | 0.0 | 0.00 | 0.00 | 0.00 | 64 | 1008.7 |
| 20260831043051 | 50 | 224 | 0.0 | 0.9 | 0.00 | 0.00 | 0.00 | 70 | 1008.9 |
| 20260831041548 | 50 | 224 | 0.0 | 0.0 | 0.00 | 0.00 | 0.00 | 65 | 1009.2 |
| 20260831040002 | 51 | 224 | 0.0 | 0.0 | 0.00 | 0.00 | 0.00 | 64 | 1009.3 |
| 20260831034514 | 52 | 224 | 0.0 | 0.0 | 0.00 | 0.00 | 0.00 | 70 | 1009.6 |
| 20260831033055 | 53 | 224 | 0.0 | 0.0 | 0.00 | 0.00 | 0.00 | 61 | 1009.7 |
| 20260831031544 | 54 | 224 | 0.0 | 0.0 | 0.00 | 0.00 | 0.00 | 58 | 1010.1 |
| 20260831030058 | 55 | 224 | 0.0 | 0.0 | 0.00 | 0.00 | 0.00 | 54 | 1010.2 |
| 20260831024557 | 55 | 224 | 0.0 | 0.9 | 0.00 | 0.00 | 0.00 | 50 | 1010.4 |
| 20260831023044 | 56 | 238 | 0.0 | 1.7 | 0.00 | 0.00 | 0.00 | 50 | 1010.5 |
| 20260831021557 | 56 | 252 | 0.0 | 1.7 | 0.00 | 0.00 | 0.00 | 51 | 1010.8 |
| 20260831020109 | 56 | 238 | 0.9 | 2.6 | 0.00 | 0.00 | 0.00 | 50 | 1010.9 |
| 20260831014545 | 56 | 239 | 0.0 | 2.6 | 0.00 | 0.00 | 0.00 | 48 | 1011.1 |
| 20260831013100 | 57 | 218 | 0.9 | 4.3 | 0.00 | 0.00 | 0.00 | 47 | 1011.3 |
| 20260831011604 | 57 | 201 | 0.9 | 3.5 | 0.00 | 0.00 | 0.00 | 46 | 1011.4 |
| 20260831010043 | 58 | 188 | 0.9 | 3.5 | 0.00 | 0.00 | 0.00 | 47 | 1011.7 |
| 20260831004501 | 58 | 81 | 0.9 | 4.3 | 0.00 | 0.00 | 0.00 | 46 | 1012.1 |
| 20260831003052 | 58 | 258 | 1.7 | 3.5 | 0.00 | 0.00 | 0.00 | 47 | 1012.1 |
| 20260831001548 | 59 | 238 | 1.7 | 4.3 | 0.00 | 0.00 | 0.00 | 48 | 1012.5 |
| 20260831000042 | 58 | 120 | 0.0 | 4.3 | 0.00 | 0.00 | 0.00 | 47 | 1012.6 |
| 20260830234607 | 58 | 191 | 2.6 | 5.2 | 0.00 | 0.00 | 0.00 | 46 | 1012.9 |
| 20260830233046 | 58 | 199 | 2.6 | 5.2 | 0.00 | 0.00 | 0.00 | 46 | 1013.2 |
| 20260830231506 | 58 | 258 | 1.7 | 6.1 | 0.00 | 0.00 | 0.00 | 45 | 1013.2 |
| 20260830230053 | 57 | 288 | 0.0 | 2.6 | 0.00 | 0.00 | 0.00 | 49 | 1013.6 |
| 20260830224603 | 57 | 272 | 2.6 | 4.3 | 0.00 | 0.00 | 0.00 | 46 | 1013.6 |
| 20260830223001 | 58 | 285 | 2.6 | 5.2 | 0.00 | 0.00 | 0.00 | 47 | 1013.8 |
| 20260830221557 | 58 | 167 | 1.7 | 4.3 | 0.00 | 0.00 | 0.00 | 45 | 1014.0 |
| 20260830214559 | 58 | 233 | 0.0 | 3.5 | 0.00 | 0.00 | 0.00 | 46 | 1014.5 |
| 20260830213055 | 58 | 293 | 0.9 | 4.3 | 0.00 | 0.00 | 0.00 | 46 | 1014.5 |
| 20260830211555 | 57 | 32 | 0.9 | 5.2 | 0.00 | 0.00 | 0.00 | 47 | 1014.8 |
| 20260830204600 | 57 | 5 | 1.7 | 5.2 | 0.00 | 0.00 | 0.00 | 48 | 1015.1 |
| 20260830203053 | 57 | 41 | 0.9 | 3.5 | 0.00 | 0.00 | 0.00 | 50 | 1015.3 |
| 20260830201603 | 56 | 200 | 0.9 | 4.3 | 0.00 | 0.00 | 0.00 | 52 | 1015.5 |
| 20260830200052 | 55 | 53 | 1.7 | 5.2 | 0.00 | 0.00 | 0.00 | 52 | 1015.8 |
| 20260830194549 | 54 | 316 | 0.9 | 4.3 | 0.00 | 0.00 | 0.00 | 55 | 1016.1 |
| 20260830193058 | 54 | 40 | 1.7 | 3.5 | 0.00 | 0.00 | 0.00 | 56 | 1016.2 |
| 20260830191556 | 53 | 65 | 0.9 | 4.3 | 0.00 | 0.00 | 0.00 | 59 | 1016.5 |
| 20260830190050 | 53 | 326 | 0.0 | 3.5 | 0.00 | 0.00 | 0.00 | 61 | 1016.7 |
| 20260830184504 | 50 | 120 | 0.0 | 1.7 | 0.00 | 0.00 | 0.00 | 64 | 1017.0 |
| 20260830183058 | 49 | 93 | 1.7 | 3.5 | 0.00 | 0.00 | 0.00 | 66 | 1017.0 |
| 20260830181552 | 49 | 148 | 0.9 | 2.6 | 0.00 | 0.00 | 0.00 | 69 | 1017.1 |
| 20260830180006 | 48 | 169 | 0.0 | 1.7 | 0.00 | 0.00 | 0.00 | 69 | 1017.3 |
| 20260830174605 | 46 | 130 | 0.0 | 1.7 | 0.00 | 0.00 | 0.00 | 71 | 1017.3 |
| 20260830173051 | 44 | 79 | 0.9 | 1.7 | 0.00 | 0.00 | 0.00 | 74 | 1017.3 |
| 20260830171604 | 43 | 117 | 0.0 | 1.7 | 0.00 | 0.00 | 0.00 | 77 | 1017.3 |
| 20260830170056 | 43 | 231 | 0.0 | 0.9 | 0.00 | 0.00 | 0.00 | 75 | 1017.5 |
| 20260830164550 | 40 | 149 | 0.0 | 2.6 | 0.00 | 0.02 | 0.00 | 81 | 1017.6 |
| 20260830163044 | 40 | 104 | 0.9 | 2.6 | 0.00 | 0.02 | 0.00 | 80 | 1017.7 |
| 20260830161612 | 39 | 78 | 0.0 | 1.7 | 0.00 | 0.02 | 0.00 | 81 | 1017.6 |
| 20260830160046 | 38 | 113 | 0.0 | 0.9 | 0.00 | 0.02 | 0.00 | 84 | 1017.7 |
| 20260830154504 | 36 | 254 | 0.0 | 0.9 | 0.00 | 0.04 | 0.00 | 86 | 1017.8 |
| 20260830153100 | 34 | 254 | 0.0 | 0.0 | 0.00 | 0.04 | 0.00 | 90 | 1017.7 |
| 20260830151548 | 32 | 254 | 0.0 | 0.0 | 0.00 | 0.04 | 0.00 | 91 | 1017.5 |
| 20260830150059 | 30 | 254 | 0.0 | 0.0 | 0.00 | 0.04 | 0.00 | 93 | 1017.6 |
| 20260830144618 | 30 | 254 | 0.0 | 0.0 | 0.00 | 0.06 | 0.00 | 92 | 1017.4 |
| 20260830143053 | 30 | 254 | 0.0 | 1.7 | 0.00 | 0.06 | 0.00 | 91 | 1017.5 |
| 20260830141502 | 32 | 254 | 0.0 | 0.9 | 0.00 | 0.06 | 0.00 | 90 | 1017.3 |
| 20260830140046 | 31 | 252 | 0.0 | 0.9 | 0.00 | 0.06 | 0.00 | 89 | 1017.2 |
| 20260830134600 | 33 | 252 | 0.0 | 0.0 | 0.00 | 0.07 | 0.00 | 90 | 1017.0 |
| 20260830133052 | 32 | 252 | 0.0 | 0.0 | 0.00 | 0.07 | 0.00 | 91 | 1016.9 |
| 20260830131507 | 32 | 252 | 0.0 | 0.0 | 0.00 | 0.07 | 0.00 | 89 | 1017.0 |
| 20260830130110 | 34 | 252 | 0.0 | 0.9 | 0.00 | 0.07 | 0.00 | 89 | 1016.8 |
| 20260830124508 | 36 | 334 | 0.0 | 0.0 | 0.00 | 0.07 | 0.00 | 87 | 1016.5 |
| 20260830123056 | 37 | 335 | 0.0 | 1.7 | 0.00 | 0.07 | 0.00 | 85 | 1016.5 |
| 20260830121553 | 38 | 335 | 0.9 | 4.3 | 0.00 | 0.07 | 0.00 | 85 | 1016.3 |
| 20260830120049 | 38 | 11 | 0.0 | 2.6 | 0.00 | 0.07 | 0.00 | 85 | 1016.1 |
| 20260830114614 | 38 | 20 | 0.0 | 3.5 | 0.00 | 0.07 | 0.00 | 85 | 1016.1 |
| 20260830113054 | 39 | 46 | 0.9 | 3.5 | 0.00 | 0.07 | 0.00 | 85 | 1015.8 |
| 20260830111514 | 39 | 9 | 0.0 | 4.3 | 0.00 | 0.07 | 0.00 | 85 | 1015.7 |
| 20260830110053 | 40 | 15 | 0.9 | 4.3 | 0.00 | 0.07 | 0.00 | 84 | 1015.6 |
| 20260830104555 | 40 | 335 | 2.6 | 7.0 | 0.00 | 0.07 | 0.00 | 83 | 1015.3 |
| 20260830103043 | 40 | 44 | 0.9 | 2.6 | 0.00 | 0.07 | 0.00 | 83 | 1015.3 |
| 20260830101606 | 41 | 319 | 0.9 | 4.3 | 0.00 | 0.07 | 0.00 | 82 | 1015.3 |
| 20260830100052 | 41 | 37 | 0.0 | 4.3 | 0.00 | 0.07 | 0.00 | 81 | 1015.1 |
| 20260830094505 | 42 | 53 | 1.7 | 6.1 | 0.00 | 0.07 | 0.00 | 83 | 1015.0 |
| 20260830093053 | 42 | 8 | 2.6 | 6.1 | 0.00 | 0.07 | 0.00 | 83 | 1014.9 |
| 20260830091554 | 41 | 22 | 1.7 | 6.1 | 0.00 | 0.07 | 0.00 | 84 | 1014.7 |
| 20260830090004 | 41 | 354 | 0.9 | 7.0 | 0.00 | 0.07 | 0.00 | 85 | 1014.6 |
| 20260830084502 | 42 | 5 | 1.7 | 7.0 | 0.00 | 0.07 | 0.00 | 86 | 1014.7 |
| 20260830083058 | 42 | 337 | 2.6 | 6.1 | 0.00 | 0.07 | 0.00 | 85 | 1014.6 |
| 20260830081503 | 42 | 321 | 1.7 | 7.0 | 0.00 | 0.07 | 0.00 | 84 | 1014.4 |
| 20260830080059 | 42 | 326 | 1.7 | 4.3 | 0.00 | 0.07 | 0.00 | 84 | 1014.2 |
| 20260830074604 | 43 | 356 | 0.0 | 0.9 | 0.00 | 0.07 | 0.07 | 83 | 1014.2 |
| 20260830073201 | 43 | 11 | 0.0 | 0.9 | 0.00 | 0.07 | 0.07 | 84 | 1014.1 |
| 20260830071605 | 43 | 53 | 0.0 | 1.7 | 0.00 | 0.07 | 0.07 | 84 | 1013.9 |
| 20260830070050 | 44 | 65 | 0.0 | 0.9 | 0.00 | 0.07 | 0.07 | 83 | 1013.7 |
| 20260830064505 | 44 | 30 | 0.0 | 6.1 | 0.00 | 0.07 | 0.07 | 82 | 1013.6 |
| 20260830063110 | 45 | 341 | 0.9 | 2.6 | 0.00 | 0.07 | 0.07 | 84 | 1013.5 |
| 20260830061550 | 45 | 328 | 0.9 | 4.3 | 0.00 | 0.07 | 0.07 | 84 | 1013.1 |
| 20260830060046 | 46 | 348 | 0.9 | 4.3 | 0.00 | 0.07 | 0.07 | 84 | 1012.8 |